Home   Weather   Ås   Past weeks

Flag for Norway Past Weather in Ås, Norway — Yesterday and Last 2 Weeks

Now
55 °F

Passing clouds.


Feels Like: 49 °F
Forecast: 50 / 62 °F
Wind: 33 mph from South

Location: Statfjord B

Current Time: Sep 25, 2016 at 9:13:48 PM

Latest Report: Sep 25, 2016 at 8:20 PM


Visibility: N/A

Pressure: 29.68 "Hg

Humidity: 94%

Dew Point: 54 °F

Location of ÅsLocation

Past Weather in Ås — Graph

°F

Ås Temperature Yesterday

Maximum temperature yesterday: 59 °F (at 12:20 PM)
Minimum temperature yesterday: 54 °F (at 2:50 AM)
Average temperature yesterday: 57 °F

High & Low Weather Summary for the Past Weeks

 TemperatureHumidityPressure
High70 °F (Sep 16, 6:20 AM)100% (Sep 11, 3:20 AM)30.21 "Hg (Sep 11, 3:20 AM)
Low50 °F (Sep 14, 6:50 AM)60% (Sep 16, 6:20 AM)29.59 "Hg (Sep 25, 1:50 PM)
Average57 °F92%29.95 "Hg
* Reported Sep 10 7:20 PM — Sep 25 7:50 PM, Ås, Weather by CustomWeather, © 2016

Note: Actual official high and low records may vary slightly from our data, if they occured in-between our weather recording intervals... More about our weather records

Advertising

Ås Weather History for the Previous 24 Hours

Scroll right to see more
 ConditionsComfort  
Time TempWeatherWind HumidityBarometerVisibility
7:50 PM
Sun, Sep 25
55 °FPartly cloudy.35 mph100%29.68 "HgN/A
7:20 PM55 °FPassing clouds.32 mph100%29.68 "HgN/A
6:50 PM55 °FSprinkles. Passing clouds.37 mph100%29.65 "HgN/A
6:20 PM55 °FLight rain. Overcast.33 mph100%29.65 "Hg6 mi
5:50 PM55 °FSprinkles. Fog.36 mph100%29.65 "Hg2 mi
5:20 PM55 °FSprinkles. Overcast.33 mph100%29.65 "Hg3 mi
4:50 PM55 °FPartly sunny.37 mph100%29.65 "HgN/A
4:20 PM57 °FLight rain. Fog.41 mph94%29.62 "Hg2 mi
3:50 PM59 °FOvercast.52 mph88%29.62 "Hg4 mi
3:20 PM59 °FOvercast.51 mph88%29.62 "Hg5 mi
2:50 PM59 °FOvercast.53 mph88%29.62 "Hg5 mi
2:20 PM59 °FPartly sunny.52 mph94%29.59 "Hg6 mi
1:50 PM59 °FOvercast.51 mph94%29.59 "Hg5 mi
1:20 PM59 °FPartly sunny.48 mph94%29.62 "Hg5 mi
12:50 PM59 °FOvercast.50 mph94%29.62 "Hg5 mi
12:20 PM59 °FPassing clouds.50 mph94%29.62 "Hg4 mi
11:50 AM59 °FPartly sunny.47 mph94%29.62 "Hg5 mi
11:20 AM59 °FPartly sunny.46 mph94%29.62 "Hg5 mi
10:50 AM59 °FPartly sunny.47 mph94%29.62 "Hg5 mi
10:20 AM59 °FPartly sunny.46 mph94%29.62 "Hg5 mi
9:50 AM59 °FPartly sunny.44 mph94%29.62 "Hg5 mi
9:20 AM59 °FPartly sunny.48 mph94%29.62 "Hg5 mi
8:50 AM59 °FBroken clouds.47 mph94%29.62 "Hg5 mi
8:20 AM59 °FBroken clouds.47 mph94%29.62 "Hg5 mi
7:50 AM59 °FPartly sunny.50 mph94%29.62 "Hg4 mi
7:20 AM59 °FPartly sunny.48 mph94%29.62 "Hg5 mi
6:50 AM59 °FPartly cloudy.46 mph94%29.62 "Hg4 mi
6:20 AM59 °FPassing clouds.47 mph94%29.62 "Hg4 mi
5:50 AM59 °FPassing clouds.47 mph94%29.62 "Hg5 mi
5:20 AM59 °FPartly cloudy.48 mph94%29.62 "Hg5 mi
4:50 AM59 °FPartly cloudy.51 mph94%29.62 "Hg5 mi
4:20 AM59 °FPassing clouds.51 mph94%29.62 "Hg5 mi
3:50 AM59 °FPartly cloudy.50 mph94%29.62 "Hg5 mi
3:20 AM59 °FPassing clouds.52 mph94%29.65 "Hg5 mi
2:50 AM59 °FOvercast.51 mph88%29.65 "Hg6 mi
2:20 AM59 °FOvercast.51 mph88%29.65 "Hg5 mi
1:50 AM59 °FOvercast.50 mph88%29.65 "Hg5 mi
1:20 AM57 °FOvercast.50 mph94%29.65 "Hg6 mi
12:50 AM57 °FPassing clouds.51 mph94%29.65 "Hg6 mi
12:20 AM57 °FPassing clouds.50 mph94%29.65 "Hg6 mi
11:50 PM
Sat, Sep 24
57 °FPassing clouds.48 mph94%29.65 "Hg6 mi
11:20 PM57 °FOvercast.45 mph94%29.65 "Hg4 mi
10:50 PM57 °FPassing clouds.46 mph94%29.65 "Hg6 mi
10:20 PM57 °FPassing clouds.48 mph94%29.65 "Hg5 mi
9:50 PM57 °FPartly cloudy.43 mph94%29.65 "Hg5 mi
9:20 PM57 °FPassing clouds.45 mph94%29.65 "Hg5 mi
Weather by CustomWeather, © 2016

See weather overviewHow to use our weather pages